TimePDT,TemperatureF,Dew PointF,Humidity,Sea Level PressureIn,VisibilityMPH,Wind Direction,Wind SpeedMPH,Gust SpeedMPH,PrecipitationIn,Events,Conditions,WindDirDegrees,DateUTC
12:53 AM,54.0,48.9,83,29.84,10.0,Calm,Calm,-,N/A,,Overcast,0,2013-10-07 07:53:00
1:09 AM,55.0,50.0,83,29.83,10.0,Variable,3.5,-,N/A,,Overcast,0,2013-10-07 08:09:00
1:19 AM,55.0,50.0,83,29.84,10.0,Calm,Calm,-,N/A,,Mostly Cloudy,0,2013-10-07 08:19:00
1:53 AM,53.1,48.9,86,29.83,10.0,Variable,5.8,-,N/A,,Scattered Clouds,0,2013-10-07 08:53:00
2:53 AM,52.0,48.0,86,29.83,10.0,SE,4.6,-,N/A,,Clear,130,2013-10-07 09:53:00
3:53 AM,51.1,46.9,86,29.84,10.0,North,-9999.0,-,N/A,,Partly Cloudy,0,2013-10-07 10:53:00
4:53 AM,52.0,48.9,89,29.86,10.0,Calm,Calm,-,0.00,Rain,Light Rain,0,2013-10-07 11:53:00
5:53 AM,51.1,48.9,92,29.87,10.0,West,5.8,-,0.03,Rain,Light Rain,280,2013-10-07 12:53:00
6:35 AM,52.0,48.9,89,29.88,7.0,West,9.2,-,0.06,Rain,Light Rain,260,2013-10-07 13:35:00
6:53 AM,51.1,48.9,92,29.89,6.0,West,8.1,-,0.10,Rain,Light Rain,260,2013-10-07 13:53:00
7:53 AM,52.0,48.0,86,29.90,5.0,West,6.9,-,0.15,Rain,Light Rain,270,2013-10-07 14:53:00
8:53 AM,52.0,46.9,83,29.91,10.0,WSW,6.9,-,0.06,Rain,Light Rain,240,2013-10-07 15:53:00
9:53 AM,52.0,48.0,86,29.93,10.0,West,12.7,-,0.02,Rain,Light Rain,260,2013-10-07 16:53:00
10:53 AM,57.0,50.0,77,29.93,10.0,WSW,8.1,-,0.02,,Partly Cloudy,240,2013-10-07 17:53:00
11:53 AM,57.9,46.9,67,29.95,10.0,West,11.5,-,N/A,,Mostly Cloudy,280,2013-10-07 18:53:00
12:53 PM,57.9,45.0,62,29.95,10.0,WSW,11.5,-,N/A,,Scattered Clouds,250,2013-10-07 19:53:00
1:53 PM,59.0,44.1,58,29.96,8.0,WSW,9.2,-,N/A,,Mostly Cloudy,240,2013-10-07 20:53:00
2:53 PM,59.0,43.0,55,29.96,10.0,West,11.5,-,N/A,,Scattered Clouds,270,2013-10-07 21:53:00
3:53 PM,59.0,42.1,53,29.97,10.0,West,10.4,-,N/A,,Partly Cloudy,260,2013-10-07 22:53:00
4:53 PM,57.9,42.1,56,29.96,10.0,West,12.7,21.9,N/A,,Overcast,260,2013-10-07 23:53:00
5:53 PM,55.9,45.0,67,29.97,10.0,WNW,6.9,-,N/A,,Overcast,290,2013-10-08 00:53:00
6:53 PM,55.0,45.0,69,29.98,10.0,SW,6.9,-,0.00,Rain,Light Rain,230,2013-10-08 01:53:00
7:53 PM,53.1,46.9,80,29.99,10.0,WSW,3.5,-,0.00,,Overcast,240,2013-10-08 02:53:00
8:53 PM,55.0,45.0,69,29.99,10.0,West,15.0,-,N/A,,Overcast,260,2013-10-08 03:53:00
9:53 PM,54.0,45.0,72,29.99,10.0,West,10.4,-,N/A,,Overcast,270,2013-10-08 04:53:00
10:53 PM,54.0,41.0,62,29.99,10.0,WNW,24.2,28.8,N/A,,Mostly Cloudy,290,2013-10-08 05:53:00
11:53 PM,55.0,39.9,57,30.00,10.0,West,17.3,24.2,N/A,,Overcast,280,2013-10-08 06:53:00